| time (UTC) | temp C | wind direction | speed KPH | gust KPH | rain 1hr cm | rain 24hr cm | rain mn cm | humidity % | barometer mb |
| 20260905191426 | 33 | 218 | 8.0 | 9.7 | 0.00 | 0.00 | 0.00 | 57 | 1015.4 |
| 20260905190920 | 33 | 220 | 6.4 | 9.7 | 0.00 | 0.00 | 0.00 | 57 | 1015.4 |
| 20260905190417 | 33 | 231 | 4.8 | 9.7 | 0.00 | 0.00 | 0.00 | 61 | 1015.6 |
| 20260905185916 | 34 | 210 | 3.2 | 6.4 | 0.00 | 0.00 | 0.00 | 60 | 1015.6 |
| 20260905185412 | 34 | 274 | 1.6 | 4.8 | 0.00 | 0.00 | 0.00 | 56 | 1015.9 |
| 20260905184910 | 33 | 245 | 1.6 | 4.8 | 0.00 | 0.00 | 0.00 | 57 | 1016.0 |
| 20260905184404 | 33 | 223 | 1.6 | 3.2 | 0.00 | 0.00 | 0.00 | 60 | 1015.8 |
| 20260905183903 | 32 | 221 | 3.2 | 3.2 | 0.00 | 0.00 | 0.00 | 64 | 1015.6 |
| 20260905183358 | 32 | 224 | 1.6 | 4.8 | 0.00 | 0.00 | 0.00 | 62 | 1015.8 |
| 20260905182853 | 33 | 281 | 1.6 | 3.2 | 0.00 | 0.00 | 0.00 | 61 | 1015.8 |
| 20260905182352 | 33 | 225 | 1.6 | 3.2 | 0.00 | 0.00 | 0.00 | 58 | 1016.0 |
| 20260905181849 | 33 | 23 | 1.6 | 3.2 | 0.00 | 0.00 | 0.00 | 60 | 1016.0 |
| 20260905181348 | 33 | 108 | 3.2 | 4.8 | 0.00 | 0.00 | 0.00 | 58 | 1015.9 |
| 20260905180847 | 33 | 106 | 6.4 | 6.4 | 0.00 | 0.00 | 0.00 | 66 | 1016.2 |
| 20260905180342 | 34 | 132 | 0.0 | 4.8 | 0.00 | 0.00 | 0.00 | 60 | 1016.3 |
| 20260905175837 | 33 | 98 | 1.6 | 9.7 | 0.00 | 0.00 | 0.00 | 59 | 1016.1 |
| 20260905175331 | 33 | 69 | 1.6 | 6.4 | 0.00 | 0.00 | 0.00 | 67 | 1016.2 |
| 20260905174826 | 33 | 90 | 6.4 | 12.9 | 0.00 | 0.00 | 0.00 | 64 | 1016.0 |
| 20260905174322 | 33 | 112 | 3.2 | 6.4 | 0.00 | 0.00 | 0.00 | 65 | 1016.0 |
| 20260905173818 | 33 | 100 | 6.4 | 9.7 | 0.00 | 0.00 | 0.00 | 62 | 1016.4 |
| 20260905173314 | 33 | 97 | 6.4 | 6.4 | 0.00 | 0.00 | 0.00 | 63 | 1016.2 |
| 20260905172814 | 33 | 100 | 6.4 | 6.4 | 0.00 | 0.00 | 0.00 | 63 | 1016.4 |
| 20260905172312 | 32 | 112 | 4.8 | 6.4 | 0.00 | 0.00 | 0.00 | 65 | 1016.5 |
| 20260905171808 | 32 | 105 | 6.4 | 6.4 | 0.00 | 0.00 | 0.00 | 71 | 1016.6 |
| 20260905171305 | 32 | 112 | 4.8 | 4.8 | 0.00 | 0.00 | 0.00 | 73 | 1016.5 |
| 20260905170801 | 32 | 104 | 4.8 | 6.4 | 0.00 | 0.00 | 0.00 | 70 | 1016.6 |
| 20260905170256 | 32 | 117 | 3.2 | 4.8 | 0.00 | 0.00 | 0.00 | 74 | 1016.6 |
| 20260905165755 | 32 | 115 | 3.2 | 3.2 | 0.00 | 0.00 | 0.00 | 72 | 1016.6 |
| 20260905165251 | 32 | 112 | 3.2 | 3.2 | 0.00 | 0.00 | 0.00 | 73 | 1016.7 |
| 20260905164752 | 32 | 114 | 3.2 | 4.8 | 0.00 | 0.00 | 0.00 | 74 | 1016.8 |
| 20260905164252 | 32 | 118 | 3.2 | 4.8 | 0.00 | 0.00 | 0.00 | 74 | 1016.8 |
| 20260905163747 | 31 | 119 | 4.8 | 4.8 | 0.00 | 0.00 | 0.00 | 69 | 1017.2 |
| 20260905163244 | 31 | 114 | 3.2 | 4.8 | 0.00 | 0.00 | 0.00 | 70 | 1017.1 |
| 20260905162739 | 31 | 113 | 3.2 | 4.8 | 0.00 | 0.00 | 0.00 | 72 | 1017.0 |
| 20260905162239 | 31 | 110 | 3.2 | 4.8 | 0.00 | 0.00 | 0.00 | 75 | 1017.2 |
| 20260905161734 | 31 | 109 | 4.8 | 4.8 | 0.00 | 0.00 | 0.00 | 73 | 1017.2 |
| 20260905161232 | 31 | 114 | 3.2 | 4.8 | 0.00 | 0.00 | 0.00 | 73 | 1017.1 |
| 20260905160731 | 31 | 109 | 3.2 | 4.8 | 0.00 | 0.00 | 0.00 | 74 | 1017.2 |
| 20260905160226 | 31 | 107 | 3.2 | 4.8 | 0.00 | 0.00 | 0.00 | 76 | 1017.2 |
| 20260905155726 | 31 | 144 | 1.6 | 1.6 | 0.00 | 0.00 | 0.00 | 76 | 1017.4 |
| 20260905155225 | 31 | 144 | 0.0 | 1.6 | 0.00 | 0.00 | 0.00 | 76 | 1017.5 |
| 20260905154719 | 31 | 132 | 0.0 | 1.6 | 0.00 | 0.00 | 0.00 | 77 | 1017.3 |
| 20260905154215 | 30 | 136 | 1.6 | 4.8 | 0.00 | 0.00 | 0.00 | 79 | 1017.5 |
| 20260905153710 | 30 | 132 | 3.2 | 3.2 | 0.00 | 0.00 | 0.00 | 79 | 1017.5 |
| 20260905153206 | 30 | 142 | 1.6 | 1.6 | 0.00 | 0.00 | 0.00 | 78 | 1017.4 |
| 20260905152701 | 30 | 124 | 3.2 | 3.2 | 0.00 | 0.00 | 0.00 | 79 | 1017.5 |
| 20260905152155 | 30 | 122 | 1.6 | 3.2 | 0.00 | 0.00 | 0.00 | 79 | 1017.6 |
| 20260905151650 | 31 | 144 | 1.6 | 3.2 | 0.00 | 0.00 | 0.00 | 76 | 1017.6 |
| 20260905151146 | 32 | 164 | 0.0 | 0.0 | 0.00 | 0.00 | 0.00 | 74 | 1017.6 |
| 20260905150641 | 31 | 187 | 1.6 | 1.6 | 0.00 | 0.00 | 0.00 | 75 | 1017.7 |
| 20260905150139 | 31 | 189 | 1.6 | 3.2 | 0.00 | 0.00 | 0.00 | 76 | 1017.8 |
| 20260905145637 | 30 | 200 | 3.2 | 3.2 | 0.00 | 0.00 | 0.00 | 77 | 1017.6 |
| 20260905145137 | 31 | 207 | 3.2 | 3.2 | 0.00 | 0.00 | 0.00 | 76 | 1017.9 |
| 20260905144632 | 31 | 218 | 3.2 | 3.2 | 0.00 | 0.00 | 0.00 | 75 | 1017.9 |
| 20260905144131 | 31 | 159 | 1.6 | 3.2 | 0.00 | 0.00 | 0.00 | 78 | 1018.0 |
| 20260905143625 | 30 | 139 | 1.6 | 1.6 | 0.00 | 0.00 | 0.00 | 78 | 1017.9 |
| 20260905143120 | 30 | 130 | 1.6 | 1.6 | 0.00 | 0.00 | 0.00 | 79 | 1018.0 |
| 20260905142619 | 29 | 136 | 1.6 | 4.8 | 0.00 | 0.00 | 0.00 | 79 | 1018.0 |
| 20260905142118 | 29 | 137 | 3.2 | 3.2 | 0.00 | 0.00 | 0.00 | 79 | 1018.0 |
| 20260905141618 | 30 | 137 | 1.6 | 1.6 | 0.00 | 0.00 | 0.00 | 75 | 1017.8 |
| 20260905141115 | 30 | 142 | 0.0 | 1.6 | 0.00 | 0.00 | 0.00 | 74 | 1018.0 |
| 20260905140615 | 29 | 142 | 1.6 | 1.6 | 0.00 | 0.00 | 0.00 | 77 | 1018.0 |
| 20260905140115 | 29 | 121 | 1.6 | 1.6 | 0.00 | 0.00 | 0.00 | 79 | 1018.0 |
| 20260905135610 | 28 | 126 | 1.6 | 3.2 | 0.00 | 0.00 | 0.00 | 79 | 1018.0 |
| 20260905135105 | 29 | 138 | 1.6 | 1.6 | 0.00 | 0.00 | 0.00 | 79 | 1018.0 |
| 20260905134600 | 29 | 149 | 1.6 | 1.6 | 0.00 | 0.00 | 0.00 | 78 | 1018.0 |
| 20260905134058 | 29 | 146 | 1.6 | 1.6 | 0.00 | 0.00 | 0.00 | 78 | 1018.0 |
| 20260905133555 | 30 | 138 | 1.6 | 3.2 | 0.00 | 0.00 | 0.00 | 77 | 1018.1 |
| 20260905133054 | 30 | 160 | 1.6 | 1.6 | 0.00 | 0.00 | 0.00 | 77 | 1018.3 |
| 20260905132554 | 30 | 169 | 0.0 | 1.6 | 0.00 | 0.00 | 0.00 | 78 | 1018.5 |
| 20260905132049 | 30 | 175 | 0.0 | 1.6 | 0.00 | 0.00 | 0.00 | 78 | 1018.3 |
| 20260905131544 | 29 | 162 | 1.6 | 1.6 | 0.00 | 0.00 | 0.00 | 81 | 1018.5 |
| 20260905131039 | 29 | 133 | 0.0 | 1.6 | 0.00 | 0.00 | 0.00 | 81 | 1018.3 |
| 20260905130538 | 29 | 175 | 1.6 | 1.6 | 0.00 | 0.00 | 0.00 | 81 | 1018.1 |
| 20260905130034 | 29 | 145 | 1.6 | 3.2 | 0.00 | 0.00 | 0.00 | 81 | 1018.4 |
| 20260905125533 | 29 | 166 | 1.6 | 1.6 | 0.00 | 0.00 | 0.00 | 80 | 1018.3 |
| 20260905125029 | 30 | 165 | 0.0 | 1.6 | 0.00 | 0.00 | 0.00 | 80 | 1018.3 |
| 20260905124526 | 28 | 156 | 0.0 | 0.0 | 0.00 | 0.00 | 0.00 | 88 | 1018.2 |
| 20260905124021 | 27 | 140 | 0.0 | 0.0 | 0.00 | 0.00 | 0.00 | 92 | 1018.4 |
| 20260905123517 | 26 | 105 | 0.0 | 0.0 | 0.00 | 0.00 | 0.00 | 92 | 1018.2 |
| 20260905123014 | 25 | 56 | 0.0 | 1.6 | 0.00 | 0.00 | 0.00 | 93 | 1018.0 |
| 20260905122513 | 25 | 337 | 1.6 | 1.6 | 0.00 | 0.00 | 0.00 | 93 | 1018.3 |
| 20260905122008 | 25 | 346 | 1.6 | 1.6 | 0.00 | 0.00 | 0.00 | 94 | 1018.0 |
| 20260905121503 | 25 | 357 | 1.6 | 3.2 | 0.00 | 0.00 | 0.00 | 95 | 1018.1 |
| 20260905121002 | 24 | 335 | 1.6 | 3.2 | 0.00 | 0.00 | 0.00 | 95 | 1018.1 |
| 20260905120456 | 24 | 350 | 1.6 | 3.2 | 0.00 | 0.00 | 0.00 | 95 | 1018.1 |
| 20260905115952 | 23 | 336 | 3.2 | 3.2 | 0.00 | 0.00 | 0.00 | 96 | 1018.1 |
| 20260905115451 | 23 | 337 | 1.6 | 3.2 | 0.00 | 0.00 | 0.00 | 96 | 1017.6 |
| 20260905114946 | 23 | 341 | 3.2 | 3.2 | 0.00 | 0.00 | 0.00 | 96 | 1017.8 |
| 20260905114446 | 23 | 344 | 1.6 | 3.2 | 0.00 | 0.00 | 0.00 | 96 | 1017.8 |
| 20260905113944 | 23 | 344 | 1.6 | 3.2 | 0.00 | 0.00 | 0.00 | 96 | 1017.8 |
| 20260905113440 | 23 | 338 | 3.2 | 3.2 | 0.00 | 0.00 | 0.00 | 96 | 1017.7 |
| 20260905112935 | 23 | 333 | 1.6 | 3.2 | 0.00 | 0.00 | 0.00 | 96 | 1017.5 |
| 20260905112430 | 23 | 339 | 3.2 | 4.8 | 0.00 | 0.00 | 0.00 | 96 | 1017.4 |
| 20260905111926 | 23 | 328 | 3.2 | 3.2 | 0.00 | 0.00 | 0.00 | 96 | 1017.6 |
| 20260905111425 | 23 | 332 | 1.6 | 3.2 | 0.00 | 0.00 | 0.00 | 96 | 1017.2 |
| 20260905110920 | 23 | 326 | 3.2 | 3.2 | 0.00 | 0.00 | 0.00 | 96 | 1017.1 |
| 20260905110419 | 23 | 336 | 1.6 | 3.2 | 0.00 | 0.00 | 0.00 | 96 | 1017.2 |
| 20260905105914 | 23 | 344 | 1.6 | 3.2 | 0.00 | 0.00 | 0.00 | 96 | 1017.3 |
| 20260905105414 | 23 | 332 | 1.6 | 3.2 | 0.00 | 0.00 | 0.00 | 96 | 1017.2 |
| 20260905104914 | 23 | 341 | 1.6 | 3.2 | 0.00 | 0.00 | 0.00 | 96 | 1017.1 |
| 20260905104410 | 23 | 334 | 1.6 | 3.2 | 0.00 | 0.00 | 0.00 | 96 | 1017.1 |
| 20260905103910 | 23 | 332 | 1.6 | 3.2 | 0.00 | 0.00 | 0.00 | 96 | 1017.0 |
| 20260905103405 | 24 | 354 | 1.6 | 3.2 | 0.00 | 0.00 | 0.00 | 96 | 1017.0 |
| 20260905102901 | 23 | 346 | 1.6 | 3.2 | 0.00 | 0.00 | 0.00 | 95 | 1017.0 |
| 20260905102357 | 24 | 341 | 3.2 | 3.2 | 0.00 | 0.00 | 0.00 | 95 | 1016.7 |
| 20260905101852 | 23 | 344 | 1.6 | 3.2 | 0.00 | 0.00 | 0.00 | 95 | 1016.9 |
| 20260905101350 | 23 | 345 | 1.6 | 3.2 | 0.00 | 0.00 | 0.00 | 96 | 1017.1 |
| 20260905100845 | 24 | 343 | 1.6 | 3.2 | 0.00 | 0.00 | 0.00 | 96 | 1017.1 |
| 20260905100341 | 24 | 334 | 1.6 | 3.2 | 0.00 | 0.00 | 0.00 | 95 | 1016.9 |
| 20260905095840 | 24 | 332 | 3.2 | 3.2 | 0.00 | 0.00 | 0.00 | 95 | 1017.0 |
| 20260905095340 | 24 | 334 | 1.6 | 3.2 | 0.00 | 0.00 | 0.00 | 96 | 1017.0 |
| 20260905094835 | 24 | 337 | 1.6 | 3.2 | 0.00 | 0.00 | 0.00 | 96 | 1017.2 |
| 20260905094331 | 24 | 334 | 1.6 | 3.2 | 0.00 | 0.00 | 0.00 | 96 | 1017.1 |
| 20260905093829 | 24 | 338 | 3.2 | 3.2 | 0.00 | 0.00 | 0.00 | 96 | 1016.6 |
| 20260905093326 | 24 | 341 | 3.2 | 3.2 | 0.00 | 0.00 | 0.00 | 96 | 1016.8 |
| 20260905092821 | 24 | 331 | 3.2 | 3.2 | 0.00 | 0.00 | 0.00 | 96 | 1016.9 |
| 20260905092321 | 24 | 339 | 1.6 | 4.8 | 0.00 | 0.00 | 0.00 | 96 | 1016.7 |
| 20260905091816 | 25 | 343 | 1.6 | 3.2 | 0.00 | 0.00 | 0.00 | 96 | 1016.7 |
| 20260905091316 | 25 | 3 | 1.6 | 3.2 | 0.00 | 0.00 | 0.00 | 96 | 1016.5 |
| 20260905090815 | 25 | 359 | 1.6 | 3.2 | 0.00 | 0.00 | 0.00 | 96 | 1016.8 |
| 20260905090311 | 24 | 341 | 1.6 | 3.2 | 0.00 | 0.00 | 0.00 | 96 | 1016.7 |
| 20260905085810 | 25 | 332 | 1.6 | 3.2 | 0.00 | 0.00 | 0.00 | 96 | 1016.7 |
| 20260905085310 | 25 | 341 | 1.6 | 3.2 | 0.00 | 0.00 | 0.00 | 96 | 1016.7 |
| 20260905084806 | 25 | 340 | 3.2 | 3.2 | 0.00 | 0.00 | 0.00 | 96 | 1016.8 |
| 20260905084305 | 25 | 336 | 3.2 | 3.2 | 0.00 | 0.00 | 0.00 | 95 | 1016.6 |
| 20260905083800 | 25 | 330 | 1.6 | 1.6 | 0.00 | 0.00 | 0.00 | 95 | 1016.7 |
| 20260905083256 | 25 | 335 | 3.2 | 3.2 | 0.00 | 0.00 | 0.00 | 95 | 1016.7 |
| 20260905082751 | 25 | 335 | 1.6 | 3.2 | 0.00 | 0.00 | 0.00 | 95 | 1016.8 |
| 20260905082248 | 25 | 344 | 1.6 | 3.2 | 0.00 | 0.00 | 0.00 | 94 | 1016.8 |
| 20260905081742 | 25 | 332 | 1.6 | 1.6 | 0.00 | 0.00 | 0.00 | 94 | 1016.7 |
| 20260905081237 | 25 | 341 | 1.6 | 3.2 | 0.00 | 0.00 | 0.00 | 94 | 1016.6 |
| 20260905080736 | 25 | 327 | 1.6 | 3.2 | 0.00 | 0.00 | 0.00 | 94 | 1016.5 |
| 20260905080236 | 25 | 342 | 3.2 | 3.2 | 0.00 | 0.00 | 0.00 | 94 | 1016.8 |
| 20260905075735 | 25 | 357 | 1.6 | 3.2 | 0.00 | 0.00 | 0.00 | 94 | 1016.6 |
| 20260905075234 | 25 | 338 | 3.2 | 3.2 | 0.00 | 0.00 | 0.00 | 94 | 1016.5 |
| 20260905074733 | 25 | 323 | 1.6 | 3.2 | 0.00 | 0.00 | 0.00 | 93 | 1016.5 |
| 20260905074230 | 25 | 339 | 1.6 | 3.2 | 0.00 | 0.00 | 0.00 | 94 | 1016.7 |
| 20260905073725 | 25 | 359 | 1.6 | 3.2 | 0.00 | 0.00 | 0.00 | 94 | 1016.6 |
| 20260905073220 | 25 | 349 | 3.2 | 3.2 | 0.00 | 0.00 | 0.00 | 93 | 1016.6 |
| 20260905072719 | 25 | 359 | 1.6 | 3.2 | 0.00 | 0.00 | 0.00 | 93 | 1016.6 |
| 20260905072215 | 25 | 338 | 3.2 | 3.2 | 0.00 | 0.00 | 0.00 | 93 | 1016.6 |
| 20260905071712 | 25 | 334 | 3.2 | 3.2 | 0.00 | 0.00 | 0.00 | 92 | 1016.4 |
| 20260905071208 | 25 | 336 | 1.6 | 3.2 | 0.00 | 0.00 | 0.00 | 92 | 1016.6 |
| 20260905070702 | 25 | 346 | 3.2 | 3.2 | 0.00 | 0.00 | 0.00 | 92 | 1016.4 |
| 20260905070158 | 25 | 341 | 1.6 | 3.2 | 0.00 | 0.00 | 0.00 | 92 | 1016.3 |
| 20260905065656 | 25 | 334 | 3.2 | 3.2 | 0.00 | 0.00 | 0.00 | 91 | 1016.5 |
| 20260905065151 | 25 | 346 | 1.6 | 3.2 | 0.00 | 0.00 | 0.00 | 91 | 1016.6 |
| 20260905064646 | 26 | 343 | 1.6 | 3.2 | 0.00 | 0.00 | 0.00 | 91 | 1016.8 |
| 20260905064142 | 26 | 333 | 1.6 | 3.2 | 0.00 | 0.00 | 0.00 | 90 | 1016.7 |
| 20260905063640 | 25 | 338 | 3.2 | 3.2 | 0.00 | 0.00 | 0.00 | 91 | 1016.8 |
| 20260905063137 | 25 | 341 | 1.6 | 3.2 | 0.00 | 0.00 | 0.00 | 91 | 1016.9 |
| 20260905062632 | 25 | 323 | 1.6 | 4.8 | 0.00 | 0.00 | 0.00 | 91 | 1016.9 |
| 20260905062131 | 26 | 1 | 1.6 | 3.2 | 0.00 | 0.00 | 0.00 | 91 | 1016.6 |
| 20260905061626 | 25 | 330 | 3.2 | 3.2 | 0.00 | 0.00 | 0.00 | 91 | 1016.7 |
| 20260905061126 | 26 | 337 | 1.6 | 3.2 | 0.00 | 0.00 | 0.00 | 91 | 1016.8 |
| 20260905060622 | 26 | 347 | 3.2 | 3.2 | 0.00 | 0.00 | 0.00 | 90 | 1016.7 |
| 20260905060118 | 26 | 341 | 3.2 | 3.2 | 0.00 | 0.00 | 0.00 | 90 | 1016.7 |
| 20260905055616 | 26 | 328 | 3.2 | 3.2 | 0.00 | 0.00 | 0.00 | 90 | 1016.9 |
| 20260905055111 | 26 | 337 | 3.2 | 3.2 | 0.00 | 0.00 | 0.00 | 90 | 1016.9 |
| 20260905054607 | 26 | 358 | 3.2 | 3.2 | 0.00 | 0.00 | 0.00 | 90 | 1016.8 |
| 20260905054102 | 26 | 336 | 1.6 | 3.2 | 0.00 | 0.00 | 0.00 | 90 | 1016.9 |
| 20260905053601 | 26 | 338 | 1.6 | 3.2 | 0.00 | 0.00 | 0.00 | 90 | 1016.9 |
| 20260905053057 | 26 | 343 | 3.2 | 3.2 | 0.00 | 0.00 | 0.00 | 89 | 1017.1 |
| 20260905052556 | 26 | 356 | 1.6 | 3.2 | 0.00 | 0.00 | 0.00 | 90 | 1016.9 |
| 20260905052051 | 26 | 342 | 1.6 | 3.2 | 0.00 | 0.00 | 0.00 | 90 | 1017.0 |
| 20260905051547 | 26 | 338 | 1.6 | 4.8 | 0.00 | 0.00 | 0.00 | 90 | 1017.0 |
| 20260905051044 | 26 | 337 | 1.6 | 4.8 | 0.00 | 0.00 | 0.00 | 91 | 1017.1 |
| 20260905050539 | 26 | 331 | 1.6 | 3.2 | 0.00 | 0.00 | 0.00 | 91 | 1017.0 |
| 20260905050031 | 26 | 343 | 1.6 | 3.2 | 0.00 | 0.00 | 0.00 | 91 | 1017.1 |
| 20260905045531 | 26 | 340 | 3.2 | 3.2 | 0.00 | 0.00 | 0.00 | 91 | 1017.0 |
| 20260905045026 | 26 | 342 | 3.2 | 3.2 | 0.00 | 0.00 | 0.00 | 91 | 1016.7 |
| 20260905044526 | 26 | 331 | 3.2 | 3.2 | 0.00 | 0.00 | 0.00 | 91 | 1016.9 |
| 20260905044020 | 26 | 338 | 1.6 | 4.8 | 0.00 | 0.00 | 0.00 | 90 | 1016.8 |
| 20260905043520 | 26 | 356 | 0.0 | 1.6 | 0.00 | 0.00 | 0.00 | 91 | 1017.0 |
| 20260905043015 | 26 | 333 | 3.2 | 3.2 | 0.00 | 0.00 | 0.00 | 91 | 1017.0 |
| 20260905042514 | 26 | 339 | 3.2 | 3.2 | 0.00 | 0.00 | 0.00 | 91 | 1017.1 |
| 20260905042009 | 26 | 334 | 3.2 | 3.2 | 0.00 | 0.00 | 0.00 | 90 | 1017.1 |
| 20260905041505 | 26 | 353 | 1.6 | 1.6 | 0.00 | 0.00 | 0.00 | 91 | 1017.0 |
| 20260905041000 | 26 | 332 | 1.6 | 3.2 | 0.00 | 0.00 | 0.00 | 91 | 1017.1 |
| 20260905040459 | 26 | 343 | 1.6 | 3.2 | 0.00 | 0.00 | 0.00 | 91 | 1017.3 |
| 20260905035958 | 27 | 337 | 3.2 | 3.2 | 0.00 | 0.00 | 0.00 | 91 | 1017.3 |
| 20260905035454 | 26 | 336 | 3.2 | 3.2 | 0.00 | 0.00 | 0.00 | 91 | 1017.5 |
| 20260905034951 | 27 | 338 | 3.2 | 3.2 | 0.00 | 0.00 | 0.00 | 90 | 1017.5 |
| 20260905034446 | 27 | 331 | 1.6 | 3.2 | 0.00 | 0.00 | 0.00 | 89 | 1017.6 |
| 20260905033945 | 27 | 335 | 1.6 | 3.2 | 0.00 | 0.00 | 0.00 | 89 | 1017.5 |
| 20260905033440 | 27 | 327 | 1.6 | 3.2 | 0.00 | 0.00 | 0.00 | 90 | 1017.4 |
| 20260905032940 | 27 | 328 | 1.6 | 1.6 | 0.00 | 0.00 | 0.00 | 89 | 1017.6 |
| 20260905032435 | 27 | 344 | 1.6 | 3.2 | 0.00 | 0.00 | 0.00 | 89 | 1017.8 |
| 20260905031930 | 27 | 338 | 1.6 | 3.2 | 0.00 | 0.00 | 0.00 | 89 | 1017.7 |
| 20260905031426 | 27 | 12 | 1.6 | 1.6 | 0.00 | 0.00 | 0.00 | 89 | 1017.5 |
| 20260905030921 | 27 | 355 | 0.0 | 1.6 | 0.00 | 0.00 | 0.00 | 89 | 1017.7 |
| 20260905030417 | 27 | 328 | 1.6 | 3.2 | 0.00 | 0.00 | 0.00 | 89 | 1017.8 |
| 20260905025915 | 27 | 341 | 1.6 | 3.2 | 0.00 | 0.00 | 0.00 | 90 | 1017.8 |
| 20260905025411 | 27 | 340 | 1.6 | 3.2 | 0.00 | 0.00 | 0.00 | 90 | 1018.0 |
| 20260905024907 | 27 | 353 | 1.6 | 3.2 | 0.00 | 0.00 | 0.00 | 90 | 1017.8 |
| 20260905024402 | 27 | 339 | 3.2 | 3.2 | 0.00 | 0.00 | 0.00 | 89 | 1018.0 |
| 20260905023857 | 27 | 344 | 3.2 | 4.8 | 0.00 | 0.00 | 0.00 | 89 | 1018.1 |
| 20260905023347 | 27 | 340 | 3.2 | 4.8 | 0.00 | 0.00 | 0.00 | 88 | 1017.9 |
| 20260905022846 | 27 | 334 | 3.2 | 4.8 | 0.00 | 0.00 | 0.00 | 88 | 1018.0 |
| 20260905022342 | 27 | 357 | 3.2 | 4.8 | 0.00 | 0.00 | 0.00 | 87 | 1018.0 |
| 20260905021841 | 27 | 346 | 3.2 | 4.8 | 0.00 | 0.00 | 0.00 | 88 | 1018.0 |
| 20260905021337 | 27 | 331 | 3.2 | 4.8 | 0.00 | 0.00 | 0.00 | 87 | 1017.8 |
| 20260905020832 | 27 | 354 | 3.2 | 3.2 | 0.00 | 0.00 | 0.00 | 86 | 1018.0 |
| 20260905020327 | 27 | 341 | 3.2 | 3.2 | 0.00 | 0.00 | 0.00 | 86 | 1017.8 |
| 20260905015826 | 27 | 340 | 1.6 | 3.2 | 0.00 | 0.00 | 0.00 | 86 | 1017.8 |
| 20260905015325 | 27 | 341 | 1.6 | 4.8 | 0.00 | 0.00 | 0.00 | 84 | 1018.0 |
| 20260905014824 | 27 | 338 | 1.6 | 3.2 | 0.00 | 0.00 | 0.00 | 85 | 1018.0 |
| 20260905014320 | 28 | 350 | 1.6 | 1.6 | 0.00 | 0.00 | 0.00 | 84 | 1017.7 |
| 20260905013815 | 28 | 359 | 0.0 | 0.0 | 0.00 | 0.00 | 0.00 | 84 | 1018.0 |
| 20260905013312 | 28 | 328 | 1.6 | 1.6 | 0.00 | 0.00 | 0.00 | 83 | 1018.0 |
| 20260905012806 | 28 | 330 | 3.2 | 3.2 | 0.00 | 0.00 | 0.00 | 84 | 1017.9 |
| 20260905012305 | 28 | 346 | 1.6 | 3.2 | 0.00 | 0.00 | 0.00 | 84 | 1017.8 |
| 20260905011758 | 28 | 1 | 1.6 | 3.2 | 0.00 | 0.00 | 0.00 | 83 | 1017.8 |
| 20260905011254 | 28 | 350 | 3.2 | 3.2 | 0.00 | 0.00 | 0.00 | 83 | 1017.6 |
| 20260905010749 | 28 | 340 | 3.2 | 4.8 | 0.00 | 0.00 | 0.00 | 83 | 1017.7 |
| 20260905010244 | 28 | 329 | 3.2 | 3.2 | 0.00 | 0.00 | 0.00 | 82 | 1017.3 |
| 20260905005741 | 28 | 347 | 1.6 | 1.6 | 0.00 | 0.00 | 0.00 | 82 | 1017.5 |
| 20260905005236 | 28 | 338 | 1.6 | 3.2 | 0.00 | 0.00 | 0.00 | 82 | 1017.6 |
| 20260905004736 | 28 | 338 | 1.6 | 3.2 | 0.00 | 0.00 | 0.00 | 81 | 1017.5 |
| 20260905004231 | 28 | 337 | 3.2 | 3.2 | 0.00 | 0.00 | 0.00 | 81 | 1017.4 |
| 20260905003731 | 28 | 336 | 1.6 | 3.2 | 0.00 | 0.00 | 0.00 | 82 | 1017.4 |
| 20260905003227 | 28 | 355 | 1.6 | 3.2 | 0.00 | 0.00 | 0.00 | 81 | 1017.4 |
| 20260905002722 | 28 | 342 | 3.2 | 4.8 | 0.00 | 0.00 | 0.00 | 81 | 1017.5 |
| 20260905002222 | 28 | 326 | 3.2 | 3.2 | 0.00 | 0.00 | 0.00 | 81 | 1017.3 |
| 20260905001717 | 29 | 339 | 3.2 | 3.2 | 0.00 | 0.00 | 0.00 | 80 | 1017.3 |
| 20260905001216 | 29 | 335 | 1.6 | 3.2 | 0.00 | 0.00 | 0.00 | 80 | 1017.3 |
| 20260905000712 | 29 | 326 | 1.6 | 4.8 | 0.00 | 0.00 | 0.00 | 81 | 1017.2 |
| 20260905000207 | 30 | 331 | 1.6 | 3.2 | 0.00 | 0.00 | 0.00 | 79 | 1017.4 |
| 20260904235707 | 30 | 331 | 1.6 | 3.2 | 0.00 | 0.00 | 0.00 | 78 | 1017.1 |
| 20260904235203 | 30 | 329 | 1.6 | 1.6 | 0.00 | 0.00 | 0.00 | 77 | 1017.3 |
| 20260904234657 | 30 | 342 | 1.6 | 3.2 | 0.00 | 0.00 | 0.00 | 77 | 1017.1 |
| 20260904234153 | 30 | 10 | 1.6 | 1.6 | 0.00 | 0.00 | 0.00 | 77 | 1017.2 |
| 20260904233648 | 30 | 344 | 1.6 | 3.2 | 0.00 | 0.00 | 0.00 | 75 | 1016.8 |
| 20260904233144 | 31 | 337 | 1.6 | 3.2 | 0.00 | 0.00 | 0.00 | 75 | 1016.9 |
| 20260904232641 | 31 | 340 | 1.6 | 3.2 | 0.00 | 0.00 | 0.00 | 74 | 1016.7 |
| 20260904232136 | 31 | 332 | 3.2 | 3.2 | 0.00 | 0.00 | 0.00 | 74 | 1016.7 |
| 20260904231632 | 31 | 347 | 1.6 | 3.2 | 0.00 | 0.00 | 0.00 | 72 | 1016.7 |
| 20260904231127 | 31 | 342 | 1.6 | 3.2 | 0.00 | 0.00 | 0.00 | 71 | 1016.9 |
| 20260904230626 | 31 | 325 | 1.6 | 3.2 | 0.00 | 0.00 | 0.00 | 70 | 1016.7 |
| 20260904230122 | 32 | 336 | 1.6 | 4.8 | 0.00 | 0.00 | 0.00 | 69 | 1016.9 |
| 20260904225619 | 32 | 338 | 1.6 | 1.6 | 0.00 | 0.00 | 0.00 | 68 | 1016.5 |
| 20260904225114 | 32 | 357 | 1.6 | 3.2 | 0.00 | 0.00 | 0.00 | 67 | 1016.7 |
| 20260904224609 | 32 | 3 | 1.6 | 1.6 | 0.00 | 0.00 | 0.00 | 65 | 1016.8 |
| 20260904224104 | 33 | 317 | 3.2 | 3.2 | 0.00 | 0.00 | 0.00 | 65 | 1016.6 |
| 20260904223603 | 33 | 31 | 1.6 | 3.2 | 0.00 | 0.00 | 0.00 | 61 | 1016.8 |
| 20260904223058 | 34 | 357 | 1.6 | 4.8 | 0.00 | 0.00 | 0.00 | 60 | 1016.8 |
| 20260904222554 | 34 | 337 | 3.2 | 3.2 | 0.00 | 0.00 | 0.00 | 59 | 1016.5 |
| 20260904222049 | 35 | 24 | 3.2 | 4.8 | 0.00 | 0.00 | 0.00 | 57 | 1016.6 |
| 20260904221544 | 34 | 327 | 4.8 | 4.8 | 0.00 | 0.00 | 0.00 | 58 | 1016.7 |
| 20260904221039 | 34 | 341 | 3.2 | 4.8 | 0.00 | 0.00 | 0.00 | 58 | 1016.5 |
| 20260904220538 | 35 | 316 | 1.6 | 4.8 | 0.00 | 0.00 | 0.00 | 58 | 1016.5 |
| 20260904220034 | 35 | 129 | 1.6 | 4.8 | 0.00 | 0.00 | 0.00 | 58 | 1016.4 |
| 20260904215533 | 34 | 308 | 3.2 | 6.4 | 0.00 | 0.00 | 0.00 | 58 | 1016.4 |
| 20260904215030 | 34 | 334 | 6.4 | 9.7 | 0.00 | 0.00 | 0.00 | 58 | 1016.4 |
| 20260904214525 | 34 | 36 | 1.6 | 4.8 | 0.00 | 0.00 | 0.00 | 59 | 1016.5 |
| 20260904214020 | 34 | 293 | 4.8 | 4.8 | 0.00 | 0.00 | 0.00 | 59 | 1016.7 |
| 20260904213518 | 34 | 322 | 4.8 | 6.4 | 0.00 | 0.00 | 0.00 | 58 | 1016.4 |
| 20260904213010 | 35 | 300 | 3.2 | 6.4 | 0.00 | 0.00 | 0.00 | 57 | 1016.6 |
| 20260904212509 | 35 | 73 | 1.6 | 9.7 | 0.00 | 0.00 | 0.00 | 56 | 1016.8 |
| 20260904212004 | 35 | 103 | 3.2 | 4.8 | 0.00 | 0.00 | 0.00 | 56 | 1016.6 |
| 20260904211503 | 36 | 123 | 0.0 | 3.2 | 0.00 | 0.00 | 0.00 | 50 | 1016.7 |
| 20260904210959 | 36 | 96 | 0.0 | 3.2 | 0.00 | 0.00 | 0.00 | 51 | 1016.8 |
| 20260904210458 | 35 | 108 | 3.2 | 4.8 | 0.00 | 0.00 | 0.00 | 56 | 1016.8 |
| 20260904205954 | 35 | 105 | 4.8 | 4.8 | 0.00 | 0.00 | 0.00 | 57 | 1016.9 |
| 20260904205449 | 35 | 103 | 4.8 | 6.4 | 0.00 | 0.00 | 0.00 | 56 | 1016.8 |
| 20260904204947 | 35 | 97 | 6.4 | 9.7 | 0.00 | 0.00 | 0.00 | 59 | 1016.9 |
| 20260904204442 | 35 | 105 | 6.4 | 9.7 | 0.00 | 0.00 | 0.00 | 54 | 1017.1 |
| 20260904203938 | 36 | 325 | 3.2 | 6.4 | 0.00 | 0.00 | 0.00 | 50 | 1017.0 |
| 20260904203434 | 35 | 139 | 0.0 | 4.8 | 0.00 | 0.00 | 0.00 | 52 | 1017.3 |
| 20260904202930 | 36 | 135 | 3.2 | 4.8 | 0.00 | 0.00 | 0.00 | 57 | 1017.2 |
| 20260904202426 | 36 | 150 | 1.6 | 3.2 | 0.00 | 0.00 | 0.00 | 52 | 1017.2 |
| 20260904201922 | 39 | 177 | 0.0 | 1.6 | 0.00 | 0.00 | 0.00 | 47 | 1017.3 |
| 20260904201417 | 39 | 175 | 1.6 | 3.2 | 0.00 | 0.00 | 0.00 | 45 | 1017.3 |
| 20260904200912 | 39 | 184 | 0.0 | 3.2 | 0.00 | 0.00 | 0.00 | 45 | 1017.3 |
| 20260904200410 | 40 | 190 | 1.6 | 3.2 | 0.00 | 0.00 | 0.00 | 44 | 1017.5 |
| 20260904195906 | 40 | 183 | 1.6 | 1.6 | 0.00 | 0.00 | 0.00 | 47 | 1017.5 |
| 20260904195404 | 39 | 203 | 1.6 | 3.2 | 0.00 | 0.00 | 0.00 | 43 | 1017.7 |
| 20260904194858 | 40 | 183 | 1.6 | 3.2 | 0.00 | 0.00 | 0.00 | 45 | 1017.7 |
| 20260904194358 | 40 | 154 | 0.0 | 0.0 | 0.00 | 0.00 | 0.00 | 45 | 1017.7 |
| 20260904193853 | 40 | 156 | 0.0 | 0.0 | 0.00 | 0.00 | 0.00 | 44 | 1017.8 |
| 20260904193348 | 39 | 168 | 0.0 | 0.0 | 0.00 | 0.00 | 0.00 | 47 | 1017.9 |
| 20260904192844 | 37 | 181 | 1.6 | 3.2 | 0.00 | 0.00 | 0.00 | 52 | 1018.0 |
| 20260904192339 | 36 | 152 | 0.0 | 1.6 | 0.00 | 0.00 | 0.00 | 53 | 1018.0 |
| 20260904191835 | 35 | 152 | 1.6 | 3.2 | 0.00 | 0.00 | 0.00 | 54 | 1018.4 |